Regional Weather Roundup
Issued by NWS Cleveland, OH

Home | Current Version | Previous Version | Text Only | Print | Product List | Glossary Off
Versions: 1 2 3 4 5 6 7 8 9 10 11 12 13 14 15 16 17 18 19 20 21 22 23 24 25 26 27 28 29 30 31 32 33 34 35 36 37 38 39 40 41 42 43 44 45 46 47 48 49 50

000
ASUS41 KCLE 271100
RWRCLE
OHIO REGIONAL WEATHER ROUNDUP
NATIONAL WEATHER SERVICE WILMINGTON, OH
600 AM EST FRI FEB 27 2015

NOTE: "FAIR" INDICATES FEW OR NO CLOUDS BELOW 12,000 FEET WITH NO
SIGNIFICANT WEATHER AND/OR OBSTRUCTIONS TO VISIBILITY.

OHZ001>008-015>018-024>027-034-035-043-044-271200-
   NORTHWEST OHIO

CITY           SKY/WX    TMP DP  RH WIND       PRES   REMARKS
DEFIANCE       CLEAR     -7 -12  79 CALM      30.47R
FINDLAY        CLEAR     -2  -7  79 CALM      30.43R
TOLEDO EXPRESS CLEAR     -7 -11  83 CALM      30.46R
TOLEDO EXEC    CLEAR     -5 -10  79 CALM      30.47R
LIMA           CLEAR      1  -5  75 CALM      30.42R
$$

OHZ009>014-019>023-028>033-038-089-271200-
   NORTHEAST OHIO

CITY           SKY/WX    TMP DP  RH WIND       PRES   REMARKS
CLE-HOPKINS    CLEAR      2  -4  76 MISG      30.45R
CLE-LAKEFRONT  CLEAR      1  -5  75 CALM      30.44R
CUY CO. ARPT   NOT AVBL
LORAIN-ELYRIA  CLEAR    -10 -13  86 W3        30.44R
ASHTABULA      CLEAR     -9 -14  78 W3        30.40R
AKRON-CANTON   CLEAR     -4  -8  83 NW6       30.37R WCI -16
WOOSTER        NOT AVBL
MANSFIELD      CLOUDY     4   1  88 CALM      30.38R
YOUNGSTOWN     PTCLDY    -2  -6  83 W5        30.37R WCI -12
$$

OHZ042-051>053-060>062-070>072-077>081-271200-
  SOUTHWEST OHIO

CITY           SKY/WX    TMP DP  RH WIND       PRES   REMARKS
CINC-COVINGTON MOCLDY    11   4  73 NW8       30.44R WCI  -1
CINC-LUNKEN    CLOUDY    12   7  80 CALM      30.50R
HAMILTON       CLOUDY     8   4  83 CALM      30.49R
DAYTON         NOT AVBL
WRIGHT-PAT AFB FLURRIES   9   5  85 CALM      30.45R
DAYTON GENERAL LGT SNOW   9   5  84 NW5       30.43R FOG     WCI   1
WILMINGTON     CLOUDY     8   3  80 W3        30.42R
$$

OHZ036-037-039>041-045>050-054>059-063>069-073>076-082>088-271200-
  CENTRAL AND SOUTHEAST OHIO

CITY           SKY/WX    TMP DP  RH WIND       PRES   REMARKS
COLUMBUS       LGT SNOW   6   2  83 CALM      30.44R
OSU AIRPORT    CLOUDY     4   0  83 E3        30.43R
BOLTON FIELD   NOT AVBL
RICKENBACK AFB NOT AVBL
NEWARK         CLOUDY     3  -1  83 CALM      30.43R
MARION         CLEAR      1  -4  79 CALM      30.42R HAZE
LANCASTER      CLEAR     -2  -7  79 CALM      30.44R
ZANESVILLE     PTCLDY     3  -1  83 CALM      30.42R
NEW PHILLY     CLEAR      4  -2  76 NW5       30.42R WCI  -5
$$



USA.gov is the U.S. government's official web portal to all federal, state and local government web resources and services.